,

(GMT )
Elsenborn

Weather History for EBLB - October, 2012

Change the Weather History Date:

Monday, October 1, 2012

  Actual Average Record
Temperature  
Mean Temperature 45 °F -  
Max Temperature 60 °F 52 °F 78 °F (2011)
Min Temperature 30 °F 44 °F 30 °F (2012)
Degree Days  
Heating Degree Days 20    
Moisture  
Dew Point 36 °F    
Average Humidity 83    
Maximum Humidity 100    
Minimum Humidity 36    
Precipitation  
Precipitation 0.00 in - - ()
Sea Level Pressure  
Sea Level Pressure 30.06 in    
Wind  
Wind Speed 3 mph ()    
Max Wind Speed 9 mph    
Max Gust Speed -    
Visibility 5.0 miles    
Events Fog    
Averages and records for this station are not official NWS values.
T = Trace of Precipitation, MM = Missing Value Source: Averaged Metar Reports

Daily Weather History Graph

Daily Weather History Graph

Search for Another Location

Airport or City:

Trip Planner

Search our weather history database for the weather conditions in past years. The results will help you decide how hot, cold, wet, or windy it might be!

Date:

Astronomy

Oct. 01, 2012 Rise Set
Actual Time 7:35 AM CEST 7:12 PM CEST
Civil Twilight 7:03 AM CEST 7:45 PM CEST
Nautical Twilight 6:25 AM CEST 8:23 PM CEST
Astronomical Twilight 5:46 AM CEST 9:01 PM CEST
Moon 7:25 PM CEST (10/1) 9:03 AM CEST (10/1)
Length of Visible Light 12h 41m
Length of Day
11h 36m
Full, 98% of the Moon is Illuminated
Oct 1
Full
Oct 8
Last Quarter
Oct 15
New
Oct 22
First Quarter
Oct 29
Full

Hourly Weather History & Observations

Time (CEST) Temp. Windchill Dew Point Humidity Pressure Visibility Wind Dir Wind Speed Gust Speed Precip Events Conditions
12:25 AM 33.8 °F - 33.8 °F 100% 30.12 in 6.2 mi Calm Calm - N/A   Partly Cloudy
1:25 AM 33.8 °F - 32.0 °F 93% 30.09 in 6.2 mi Variable 2.3 mph - N/A   Clear
2:00 AM 34 °F - 33 °F 92% 30.18 in 11 mi 2.2 mph - -   Scattered Clouds
2:25 AM 35.6 °F - 33.8 °F 93% 30.09 in 6.2 mi Variable 2.3 mph - N/A   Clear
2:29 AM 35.6 °F - 33.8 °F 93% 30.09 in 4.3 mi Variable 2.3 mph - N/A   Clear
2:46 AM 35.6 °F 32.8 °F 35.6 °F 100% 30.09 in 5.0 mi Variable 3.5 mph - N/A   Clear
3:03 AM 35.6 °F - 33.8 °F 93% 30.06 in 3.7 mi Variable 1.2 mph - N/A   Clear
3:09 AM 35.6 °F - 33.8 °F 93% 30.06 in 0.3 mi Variable 2.3 mph - N/A   Clear
3:17 AM 35.6 °F - 35.6 °F 100% 30.06 in 0.6 mi Variable 2.3 mph - N/A   Clear
3:23 AM 35.6 °F - 35.6 °F 100% 30.06 in - Variable 2.3 mph - N/A   Clear
3:29 AM 35.6 °F 32.8 °F 33.8 °F 93% 30.06 in 4.3 mi Variable 3.5 mph - N/A   Clear
3:35 AM 35.6 °F - 33.8 °F 93% 30.06 in 6.2 mi Variable 2.3 mph - N/A   Clear
3:47 AM 33.8 °F - 33.8 °F 100% 30.06 in 3.7 mi Variable 1.2 mph - N/A   Clear
4:08 AM 33.8 °F - 32.0 °F 93% 30.06 in 5.0 mi Variable 2.3 mph - N/A   Partly Cloudy
4:14 AM 33.8 °F - 32.0 °F 93% 30.06 in 4.3 mi Variable 2.3 mph - N/A   Partly Cloudy
4:22 AM 33.8 °F - 32.0 °F 93% 30.06 in 5.0 mi Variable 2.3 mph - N/A   Partly Cloudy
4:25 AM 35.6 °F - 33.8 °F 93% 30.06 in 5.0 mi Variable 1.2 mph - N/A   Clear
5:00 AM 32 °F - 30 °F 90% 30.16 in 11 mi Calm Calm - -   Clear
5:07 AM 33.8 °F - 32.0 °F 93% 30.06 in 4.3 mi Calm Calm - N/A   Clear
5:14 AM 33.8 °F - 32.0 °F 93% 30.06 in - Calm Calm - N/A   Clear
5:25 AM 33.8 °F - 32.0 °F 93% 30.06 in 0.3 mi Calm Calm - N/A Fog Fog
5:29 AM 33.8 °F - 32.0 °F 93% 30.06 in 0.8 mi Variable 1.2 mph - N/A   Clear
5:36 AM 32.0 °F - 32.0 °F 100% 30.06 in - Variable 1.2 mph - N/A   Clear
5:37 AM 32.0 °F - 32.0 °F 100% 30.06 in 3.1 mi Variable 1.2 mph - N/A   Clear
6:09 AM 32.0 °F - 30.2 °F 93% 30.06 in - Calm Calm - N/A   Clear
6:25 AM 30.2 °F - 30.2 °F 100% 30.06 in 1.1 mi Calm Calm - N/A   Partly Cloudy
6:52 AM 30.2 °F - 28.4 °F 93% 30.06 in 0.3 mi Variable 2.3 mph - N/A Fog Fog
7:25 AM 30.2 °F - 28.4 °F 93% 30.06 in 0.3 mi Variable 1.2 mph - N/A Fog Fog
8:00 AM 30 °F - 29 °F 95% 30.16 in 0 mi 2.2 mph - - Fog Partial Fog
8:25 AM 32.0 °F - 30.2 °F 93% 30.06 in 0.1 mi Variable 1.2 mph - N/A Fog Fog
9:01 AM 39.2 °F - 39.2 °F 100% 30.06 in 4.3 mi Variable 1.2 mph - N/A Fog Fog
9:25 AM 39.2 °F - 39.2 °F 100% 30.06 in 5.0 mi Variable 1.2 mph - N/A Fog Fog
10:25 AM 48.2 °F - 42.8 °F 82% 30.06 in 6.2 mi SW 8.1 mph - N/A   Scattered Clouds
11:00 AM 51 °F - 43 °F 65% 30.07 in 19 mi SW 8.9 mph - -   Partly Cloudy
11:25 AM 51.8 °F - 42.8 °F 71% 30.06 in 6.2 mi SSW 9.2 mph - N/A   Scattered Clouds
12:25 PM 55.4 °F - 41.0 °F 58% 30.04 in 6.2 mi SSW 8.1 mph - N/A   Scattered Clouds
1:25 PM 57.2 °F - 42.8 °F 59% 30.04 in 6.2 mi WSW 9.2 mph - N/A   Scattered Clouds
2:00 PM 59 °F - 43 °F 45% 30.01 in 22 mi SSW 6.7 mph - -   Partly Cloudy
2:25 PM 60.8 °F - 41.0 °F 48% 30.04 in 6.2 mi SSW 9.2 mph - N/A   Scattered Clouds
3:25 PM 60.8 °F - 41.0 °F 48% 30.04 in 6.2 mi SW 8.1 mph - N/A   Scattered Clouds
4:25 PM 60.8 °F - 37.4 °F 42% 30.04 in 6.2 mi SW 9.2 mph - N/A   Scattered Clouds
5:00 PM 60 °F - 40 °F 36% 30.00 in 22 mi South 8.9 mph - -   Clear
5:25 PM 59.0 °F - 41.0 °F 51% 30.01 in 6.2 mi SSW 5.8 mph - N/A   Clear
6:25 PM 57.2 °F - 42.8 °F 59% 30.01 in 6.2 mi SSW 4.6 mph - N/A   Clear
7:25 PM 51.8 °F - 41.0 °F 67% 30.01 in 6.2 mi SSW 5.8 mph - N/A   Clear
8:00 PM 51 °F - 42 °F 63% 30.03 in 28 mi SSW 6.7 mph - -   Scattered Clouds
8:25 PM 50.0 °F - 42.8 °F 76% 30.04 in 6.2 mi SW 6.9 mph - N/A   Mostly Cloudy
9:25 PM 48.2 °F - 42.8 °F 82% 30.04 in 6.2 mi SSW 5.8 mph - N/A   Mostly Cloudy
10:25 PM 48.2 °F - 41.0 °F 76% 30.04 in 6.2 mi Variable 3.5 mph - N/A   Scattered Clouds
11:00 PM 48 °F - 42 °F 71% 30.06 in 25 mi SW 4.5 mph - -   Partly Cloudy
11:25 PM 48.2 °F - 41.0 °F 76% 30.04 in 6.2 mi SSW 5.8 mph - N/A   Scattered Clouds